Track COSMOS 2500 (GLONASS) now! COSMOS 2500 (GLONASS) is classified as:
1 40001U 14032A 25185.79115377 -.00000078 00000-0 00000-0 0 9992 2 40001 65.4322 325.4984 0007494 188.5761 171.4088 2.13106025 86052